Location: Unspecified
(0.0000°N, 0.0000°E)
Time: 17:05:56
(UTC+00:00)

RS-15 - Visible Passes

Search period start: 22 March 2019 00:00
Search period end: 01 April 2019 00:00
Orbit: 1898 x 2147 km, 64.8° (Epoch: 21 March)

Date Brightness Start Highest point End Pass type
(mag) Time Alt. Az. Time Alt. Az. Time Alt. Az.
22 Mar 9.1 04:06:29 10° S 04:17:43 42° ESE 04:28:31 10° NE visible
23 Mar 9.6 03:31:40 10° SSE 03:41:39 29° ESE 03:51:16 10° ENE visible
23 Mar 8.3 05:42:07 10° SW 05:53:44 52° WNW 06:04:58 10° N visible
24 Mar 9.9 02:57:38 10° SSE 03:05:29 19° ESE 03:13:07 10° ENE visible
24 Mar 8.1 05:05:39 10° SSW 05:17:47 72° WNW 05:29:27 10° NNE visible
24 Mar 10.6 19:10:33 10° WSW 19:11:18 10° WSW 19:12:04 10° WSW visible
25 Mar 10.2 02:25:55 10° SE 02:29:14 11° ESE 02:32:30 10° E visible
25 Mar 8.1 04:29:34 10° SSW 04:41:50 84° ESE 04:53:36 10° NNE visible
25 Mar 10.3 18:28:20 10° WNW 18:35:03 18° WSW 18:41:59 10° SSW visible
26 Mar 8.5 03:53:50 10° S 04:05:52 62° ESE 04:17:23 10° NNE visible
27 Mar 8.9 03:18:29 10° S 03:29:51 44° ESE 03:40:46 10° NE visible
27 Mar 8.6 05:31:21 10° SW 05:41:49 35° WNW 05:52:02 10° N visible
28 Mar 9.3 02:43:35 10° S 02:53:47 31° ESE 03:03:37 10° NE visible
28 Mar 8.2 04:54:21 10° SW 05:05:51 50° WNW 05:16:59 10° N visible
29 Mar 9.7 02:09:24 10° SSE 02:17:39 21° ESE 02:25:38 10° ENE visible
29 Mar 8.0 04:17:50 10° SSW 04:29:54 69° WNW 04:41:32 10° NNE visible
30 Mar 10.0 01:37:01 10° SE 01:41:24 12° ESE 01:45:43 10° E visible
30 Mar 8.0 03:43:59 18° SSW 03:53:57 88° ESE 04:05:44 10° NNE visible
31 Mar 8.3 03:12:42 39° S 03:17:59 65° ESE 03:29:33 10° NNE visible
31 Mar 8.9 05:21:33 10° WSW 05:29:59 22° WNW 05:38:16 10° NNW visible
